Tracking 31028 objects as of 17-Jul-2025
HD Live streaming from Space Station
objects crossing your sky now

SL-16 DEB

Track SL-16 DEB now!
10-day predictions


NORAD ID: 39873
Int'l Code: 1993-016AX
Perigee: 700.8 km
Apogee: 826.9 km
Inclination: 70.4 °
Period: 100.0 minutes
Semi major axis: 7134 km
RCS: 0.0103 m2 (small)
Launch date: March 26, 1993
Source: Commonwealth of Independent States (former USSR) (CIS)
Launch site: TYURATAM MISSILE AND SPACE COMPLEX (TTMTR)

Note: This is SATELLITE DEBRIS
Your satellite tracking list
Your tracking list is empty




NASA's NSSDC Master Catalog

Two Line Element Set (TLE):
1 39873U 93016AX  25197.69912666  .00002820  00000-0  86223-3 0  9994
2 39873  70.3923 215.5219 0088342 295.8130  63.3908 14.40541511577031
Source of the keplerian elements: AFSPC